| time (UTC) | temp C | wind direction | speed KPH | gust KPH | rain 1hr cm | rain 24hr cm | rain mn cm | humidity % | barometer mb |
| 20260504202041 | 25 | 134 | 1.6 | 6.4 | 0.00 | 0.00 | 0.00 | 32 | 1014.0 |
| 20260504201541 | 25 | 275 | 4.8 | 6.4 | 0.00 | 0.00 | 0.00 | 32 | 1014.0 |
| 20260504201041 | 25 | 217 | 1.6 | 6.4 | 0.00 | 0.00 | 0.00 | 32 | 1014.0 |
| 20260504200542 | 26 | 176 | 3.2 | 8.0 | 0.00 | 0.00 | 0.00 | 33 | 1014.2 |
| 20260504200042 | 25 | 79 | 1.6 | 8.0 | 0.00 | 0.00 | 0.00 | 31 | 1014.1 |
| 20260504195539 | 26 | 168 | 3.2 | 6.4 | 0.00 | 0.00 | 0.00 | 35 | 1014.2 |
| 20260504195040 | 25 | 90 | 1.6 | 8.0 | 0.00 | 0.00 | 0.00 | 37 | 1014.2 |
| 20260504194533 | 25 | 180 | 1.6 | 8.0 | 0.00 | 0.00 | 0.00 | 37 | 1014.3 |
| 20260504194032 | 25 | 144 | 3.2 | 6.4 | 0.00 | 0.00 | 0.00 | 37 | 1014.4 |
| 20260504193533 | 26 | 3 | 1.6 | 3.2 | 0.00 | 0.00 | 0.00 | 34 | 1014.4 |
| 20260504193031 | 27 | 180 | 0.0 | 8.0 | 0.00 | 0.00 | 0.00 | 36 | 1014.5 |
| 20260504192530 | 25 | 44 | 3.2 | 8.0 | 0.00 | 0.00 | 0.00 | 34 | 1014.5 |
| 20260504192028 | 26 | 61 | 1.6 | 4.8 | 0.00 | 0.00 | 0.00 | 31 | 1014.6 |
| 20260504191531 | 26 | 149 | 1.6 | 6.4 | 0.00 | 0.00 | 0.00 | 37 | 1014.5 |
| 20260504191029 | 25 | 94 | 3.2 | 6.4 | 0.00 | 0.00 | 0.00 | 34 | 1014.7 |
| 20260504190531 | 25 | 140 | 1.6 | 8.0 | 0.00 | 0.00 | 0.00 | 32 | 1014.7 |
| 20260504190319 | 26 | 271 | 3.2 | 8.0 | 0.00 | 0.00 | 0.00 | 39 | 1014.9 |
| 20260504185530 | 25 | 28 | 1.6 | 3.2 | 0.00 | 0.00 | 0.00 | 36 | 1014.9 |
| 20260504185030 | 25 | 178 | 1.6 | 3.2 | 0.00 | 0.00 | 0.00 | 33 | 1015.0 |
| 20260504184530 | 25 | 235 | 1.6 | 4.8 | 0.00 | 0.00 | 0.00 | 32 | 1015.0 |
| 20260504184029 | 25 | 172 | 1.6 | 8.0 | 0.00 | 0.00 | 0.00 | 33 | 1015.1 |
| 20260504183529 | 25 | 134 | 4.8 | 8.0 | 0.00 | 0.00 | 0.00 | 33 | 1015.2 |
| 20260504183030 | 25 | 128 | 3.2 | 6.4 | 0.00 | 0.00 | 0.00 | 34 | 1015.3 |
| 20260504182529 | 25 | 97 | 3.2 | 4.8 | 0.00 | 0.00 | 0.00 | 38 | 1015.4 |
| 20260504182031 | 25 | 316 | 1.6 | 6.4 | 0.00 | 0.00 | 0.00 | 33 | 1015.4 |
| 20260504181528 | 25 | 271 | 3.2 | 8.0 | 0.00 | 0.00 | 0.00 | 38 | 1015.5 |
| 20260504181025 | 24 | 79 | 3.2 | 8.0 | 0.00 | 0.00 | 0.00 | 34 | 1015.4 |
| 20260504180518 | 25 | 86 | 3.2 | 6.4 | 0.00 | 0.00 | 0.00 | 33 | 1015.4 |
| 20260504180014 | 24 | 117 | 1.6 | 6.4 | 0.00 | 0.00 | 0.00 | 35 | 1015.5 |
| 20260504175856 | 24 | 241 | 3.2 | 8.0 | 0.00 | 0.00 | 0.00 | 35 | 1015.8 |
| 20260504175850 | 24 | 39 | 3.2 | 8.0 | 0.00 | 0.00 | 0.00 | 40 | 1015.7 |
| 20260504174809 | 24 | 321 | 3.2 | 9.7 | 0.00 | 0.00 | 0.00 | 39 | 1015.7 |
| 20260504174012 | 25 | 151 | 4.8 | 9.7 | 0.00 | 0.00 | 0.00 | 34 | 1015.8 |
| 20260504173512 | 24 | 118 | 1.6 | 4.8 | 0.00 | 0.00 | 0.00 | 35 | 1015.7 |
| 20260504173012 | 24 | 169 | 1.6 | 6.4 | 0.00 | 0.00 | 0.00 | 40 | 1015.7 |
| 20260504172512 | 23 | 200 | 3.2 | 6.4 | 0.00 | 0.00 | 0.00 | 37 | 1016.0 |
| 20260504172011 | 23 | 204 | 3.2 | 6.4 | 0.00 | 0.00 | 0.00 | 35 | 1016.0 |
| 20260504171511 | 24 | 152 | 3.2 | 6.4 | 0.00 | 0.00 | 0.00 | 38 | 1016.1 |
| 20260504171012 | 24 | 209 | 1.6 | 6.4 | 0.00 | 0.00 | 0.00 | 42 | 1016.1 |
| 20260504170806 | 23 | 276 | 1.6 | 6.4 | 0.00 | 0.00 | 0.00 | 38 | 1016.2 |
| 20260504150950 | 21 | 61 | 1.6 | 4.8 | 0.00 | 0.00 | 0.00 | 42 | 1017.4 |
| 20260504150449 | 21 | 17 | 3.2 | 4.8 | 0.00 | 0.00 | 0.00 | 42 | 1017.4 |
| 20260504140933 | 19 | 250 | 0.0 | 6.4 | 0.00 | 0.00 | 0.00 | 53 | 1017.4 |
| 20260504140430 | 19 | 298 | 1.6 | 4.8 | 0.00 | 0.00 | 0.00 | 53 | 1017.4 |
| 20260504130420 | 14 | 196 | 0.0 | 3.2 | 0.00 | 0.00 | 0.00 | 72 | 1017.5 |
| 20260504110352 | 6 | 334 | 0.0 | 0.0 | 0.00 | 0.00 | 0.00 | 89 | 1017.0 |
| 20260504100329 | 6 | 334 | 0.0 | 0.0 | 0.00 | 0.00 | 0.00 | 86 | 1016.8 |
| 20260504081810 | 8 | 334 | 0.0 | 0.0 | 0.00 | 0.00 | 0.00 | 80 | 1016.9 |
| 20260504081311 | 8 | 334 | 0.0 | 0.0 | 0.00 | 0.00 | 0.00 | 79 | 1016.9 |
| 20260504080811 | 8 | 334 | 0.0 | 0.0 | 0.00 | 0.00 | 0.00 | 79 | 1016.9 |
| 20260504080310 | 9 | 334 | 0.0 | 0.0 | 0.00 | 0.00 | 0.00 | 77 | 1016.9 |
| 20260504070311 | 9 | 334 | 0.0 | 3.2 | 0.00 | 0.00 | 0.00 | 77 | 1017.0 |
| 20260504060120 | 10 | 334 | 0.0 | 0.0 | 0.00 | 0.00 | 0.00 | 70 | 1017.1 |
| 20260504050250 | 10 | 334 | 0.0 | 0.0 | 0.00 | 0.00 | 0.00 | 68 | 1017.6 |
| 20260504045747 | 10 | 334 | 0.0 | 0.0 | 0.00 | 0.00 | 0.00 | 70 | 1017.6 |
| 20260504045247 | 11 | 334 | 0.0 | 0.0 | 0.00 | 0.00 | 0.00 | 66 | 1017.6 |
| 20260504044747 | 11 | 334 | 0.0 | 0.0 | 0.00 | 0.00 | 0.00 | 66 | 1017.5 |
| 20260504044248 | 11 | 334 | 0.0 | 1.6 | 0.00 | 0.00 | 0.00 | 66 | 1017.5 |
| 20260504043745 | 11 | 334 | 0.0 | 1.6 | 0.00 | 0.00 | 0.00 | 68 | 1017.5 |
| 20260504043250 | 11 | 334 | 0.0 | 3.2 | 0.00 | 0.00 | 0.00 | 67 | 1017.6 |
| 20260504042745 | 11 | 334 | 0.0 | 3.2 | 0.00 | 0.00 | 0.00 | 64 | 1017.4 |
| 20260504042240 | 11 | 334 | 0.0 | 3.2 | 0.00 | 0.00 | 0.00 | 67 | 1017.5 |
| 20260504041736 | 11 | 334 | 0.0 | 3.2 | 0.00 | 0.00 | 0.00 | 66 | 1017.5 |
| 20260504041533 | 11 | 334 | 0.0 | 3.2 | 0.00 | 0.00 | 0.00 | 69 | 1017.5 |
| 20260504041027 | 11 | 334 | 0.0 | 0.0 | 0.00 | 0.00 | 0.00 | 69 | 1017.6 |
| 20260504040231 | 11 | 334 | 0.0 | 0.0 | 0.00 | 0.00 | 0.00 | 68 | 1017.4 |
| 20260504035731 | 11 | 334 | 0.0 | 0.0 | 0.00 | 0.00 | 0.00 | 65 | 1017.6 |
| 20260504035230 | 11 | 334 | 0.0 | 0.0 | 0.00 | 0.00 | 0.00 | 66 | 1017.5 |
| 20260504034729 | 11 | 334 | 0.0 | 3.2 | 0.00 | 0.00 | 0.00 | 66 | 1017.6 |
| 20260504034230 | 11 | 334 | 0.0 | 3.2 | 0.00 | 0.00 | 0.00 | 65 | 1017.6 |
| 20260504033729 | 11 | 334 | 0.0 | 0.0 | 0.00 | 0.00 | 0.00 | 64 | 1017.5 |
| 20260504033229 | 11 | 334 | 0.0 | 1.6 | 0.00 | 0.00 | 0.00 | 64 | 1017.4 |
| 20260504032729 | 11 | 334 | 0.0 | 1.6 | 0.00 | 0.00 | 0.00 | 65 | 1017.5 |
| 20260504032224 | 11 | 334 | 0.0 | 0.0 | 0.00 | 0.00 | 0.00 | 64 | 1017.4 |
| 20260504031725 | 11 | 334 | 0.0 | 0.0 | 0.00 | 0.00 | 0.00 | 66 | 1017.3 |
| 20260504031226 | 12 | 334 | 0.0 | 0.0 | 0.00 | 0.00 | 0.00 | 65 | 1017.4 |
| 20260504030726 | 12 | 334 | 0.0 | 0.0 | 0.00 | 0.00 | 0.00 | 62 | 1017.5 |
| 20260504030223 | 12 | 334 | 0.0 | 3.2 | 0.00 | 0.00 | 0.00 | 59 | 1017.5 |
| 20260504025719 | 13 | 334 | 0.0 | 3.2 | 0.00 | 0.00 | 0.00 | 59 | 1017.4 |
| 20260504025221 | 13 | 334 | 0.0 | 3.2 | 0.00 | 0.00 | 0.00 | 60 | 1017.5 |
| 20260504025019 | 13 | 334 | 0.0 | 3.2 | 0.00 | 0.00 | 0.00 | 60 | 1017.4 |
| 20260504024220 | 13 | 337 | 0.0 | 3.2 | 0.00 | 0.00 | 0.00 | 56 | 1017.2 |
| 20260504024018 | 13 | 337 | 0.0 | 3.2 | 0.00 | 0.00 | 0.00 | 57 | 1017.2 |
| 20260504023217 | 13 | 338 | 0.0 | 3.2 | 0.00 | 0.00 | 0.00 | 57 | 1017.1 |
| 20260504022715 | 13 | 344 | 0.0 | 3.2 | 0.00 | 0.00 | 0.00 | 55 | 1017.1 |
| 20260504022210 | 13 | 344 | 0.0 | 3.2 | 0.00 | 0.00 | 0.00 | 59 | 1017.0 |
| 20260504021712 | 13 | 344 | 0.0 | 3.2 | 0.00 | 0.00 | 0.00 | 55 | 1017.0 |
| 20260504021211 | 13 | 344 | 0.0 | 1.6 | 0.00 | 0.00 | 0.00 | 56 | 1016.9 |
| 20260504020750 | 13 | 344 | 0.0 | 1.6 | 0.00 | 0.00 | 0.00 | 58 | 1016.9 |
| 20260504015711 | 13 | 3 | 0.0 | 3.2 | 0.00 | 0.00 | 0.00 | 57 | 1016.6 |
| 20260504015500 | 13 | 3 | 0.0 | 3.2 | 0.00 | 0.00 | 0.00 | 57 | 1016.6 |
| 20260504014711 | 14 | 3 | 0.0 | 0.0 | 0.00 | 0.00 | 0.00 | 52 | 1016.5 |
| 20260504014210 | 14 | 3 | 0.0 | 0.0 | 0.00 | 0.00 | 0.00 | 56 | 1016.5 |
| 20260504013708 | 14 | 3 | 0.0 | 0.0 | 0.00 | 0.00 | 0.00 | 53 | 1016.5 |
| 20260504013204 | 14 | 3 | 0.0 | 3.2 | 0.00 | 0.00 | 0.00 | 53 | 1016.4 |
| 20260504012704 | 14 | 3 | 0.0 | 3.2 | 0.00 | 0.00 | 0.00 | 54 | 1016.4 |
| 20260504012203 | 14 | 3 | 0.0 | 3.2 | 0.00 | 0.00 | 0.00 | 54 | 1016.4 |
| 20260504011954 | 15 | 8 | 0.0 | 0.0 | 0.00 | 0.00 | 0.00 | 52 | 1016.3 |
| 20260504011452 | 15 | 8 | 0.0 | 0.0 | 0.00 | 0.00 | 0.00 | 52 | 1016.3 |
| 20260504010701 | 15 | 8 | 0.0 | 0.0 | 0.00 | 0.00 | 0.00 | 51 | 1016.2 |
| 20260504010203 | 15 | 8 | 0.0 | 0.0 | 0.00 | 0.00 | 0.00 | 46 | 1016.1 |
| 20260504005703 | 15 | 8 | 0.0 | 0.0 | 0.00 | 0.00 | 0.00 | 46 | 1016.1 |
| 20260504005202 | 15 | 8 | 0.0 | 0.0 | 0.00 | 0.00 | 0.00 | 45 | 1016.1 |
| 20260504004703 | 16 | 8 | 0.0 | 0.0 | 0.00 | 0.00 | 0.00 | 45 | 1015.9 |
| 20260504004203 | 16 | 8 | 0.0 | 0.0 | 0.00 | 0.00 | 0.00 | 44 | 1016.0 |
| 20260504003701 | 16 | 8 | 0.0 | 0.0 | 0.00 | 0.00 | 0.00 | 45 | 1016.0 |
| 20260504003458 | 16 | 8 | 0.0 | 0.0 | 0.00 | 0.00 | 0.00 | 43 | 1016.0 |
| 20260504003019 | 16 | 8 | 0.0 | 0.0 | 0.00 | 0.00 | 0.00 | 42 | 1015.9 |
| 20260504002201 | 17 | 8 | 0.0 | 0.0 | 0.00 | 0.00 | 0.00 | 41 | 1015.9 |
| 20260504001702 | 17 | 8 | 0.0 | 0.0 | 0.00 | 0.00 | 0.00 | 42 | 1015.9 |
| 20260504001202 | 17 | 8 | 0.0 | 0.0 | 0.00 | 0.00 | 0.00 | 42 | 1015.9 |
| 20260504000703 | 17 | 8 | 0.0 | 0.0 | 0.00 | 0.00 | 0.00 | 40 | 1015.8 |
| 20260504000159 | 17 | 8 | 0.0 | 0.0 | 0.00 | 0.00 | 0.00 | 40 | 1015.8 |
| 20260503235656 | 18 | 8 | 0.0 | 0.0 | 0.00 | 0.00 | 0.00 | 40 | 1015.7 |
| 20260503235156 | 18 | 8 | 0.0 | 0.0 | 0.00 | 0.00 | 0.00 | 39 | 1015.7 |
| 20260503234654 | 18 | 8 | 0.0 | 1.6 | 0.00 | 0.00 | 0.00 | 38 | 1015.8 |
| 20260503234507 | 18 | 8 | 0.0 | 1.6 | 0.00 | 0.00 | 0.00 | 37 | 1015.7 |
| 20260503233650 | 18 | 310 | 0.0 | 1.6 | 0.00 | 0.00 | 0.00 | 36 | 1015.8 |
| 20260503233442 | 19 | 329 | 0.0 | 3.2 | 0.00 | 0.00 | 0.00 | 38 | 1015.7 |
| 20260503232954 | 19 | 92 | 0.0 | 3.2 | 0.00 | 0.00 | 0.00 | 37 | 1015.7 |
| 20260503232149 | 20 | 90 | 0.0 | 3.2 | 0.00 | 0.00 | 0.00 | 39 | 1015.8 |
| 20260503231646 | 20 | 80 | 0.0 | 3.2 | 0.00 | 0.00 | 0.00 | 39 | 1015.8 |
| 20260503231139 | 20 | 114 | 0.0 | 3.2 | 0.00 | 0.00 | 0.00 | 36 | 1015.7 |
| 20260503230639 | 20 | 248 | 0.0 | 3.2 | 0.00 | 0.00 | 0.00 | 35 | 1015.9 |
| 20260503230138 | 20 | 140 | 0.0 | 1.6 | 0.00 | 0.00 | 0.00 | 35 | 1015.8 |
| 20260503225637 | 20 | 0 | 0.0 | 3.2 | 0.00 | 0.00 | 0.00 | 36 | 1015.9 |
| 20260503225137 | 20 | 326 | 1.6 | 3.2 | 0.00 | 0.00 | 0.00 | 33 | 1015.8 |
| 20260503224634 | 21 | 275 | 0.0 | 4.8 | 0.00 | 0.00 | 0.00 | 33 | 1015.9 |
| 20260503224135 | 21 | 271 | 3.2 | 4.8 | 0.00 | 0.00 | 0.00 | 33 | 1015.9 |
| 20260503223629 | 21 | 265 | 3.2 | 4.8 | 0.00 | 0.00 | 0.00 | 33 | 1015.9 |
| 20260503223129 | 21 | 214 | 0.0 | 4.8 | 0.00 | 0.00 | 0.00 | 34 | 1015.8 |
| 20260503222942 | 21 | 344 | 0.0 | 3.2 | 0.00 | 0.00 | 0.00 | 33 | 1016.0 |
| 20260503222129 | 21 | 313 | 1.6 | 4.8 | 0.00 | 0.00 | 0.00 | 34 | 1016.0 |
| 20260503221629 | 21 | 199 | 1.6 | 4.8 | 0.00 | 0.00 | 0.00 | 34 | 1016.0 |
| 20260503221421 | 21 | 157 | 1.6 | 4.8 | 0.00 | 0.00 | 0.00 | 34 | 1015.9 |
| 20260503220920 | 21 | 279 | 0.0 | 8.0 | 0.00 | 0.00 | 0.00 | 35 | 1016.0 |
| 20260503220131 | 21 | 276 | 3.2 | 8.0 | 0.00 | 0.00 | 0.00 | 32 | 1016.1 |
| 20260503215629 | 21 | 197 | 1.6 | 8.0 | 0.00 | 0.00 | 0.00 | 30 | 1016.0 |
| 20260503215132 | 22 | 3 | 1.6 | 4.8 | 0.00 | 0.00 | 0.00 | 32 | 1016.0 |
| 20260503214627 | 22 | 300 | 1.6 | 6.4 | 0.00 | 0.00 | 0.00 | 32 | 1016.1 |
| 20260503214127 | 22 | 298 | 1.6 | 6.4 | 0.00 | 0.00 | 0.00 | 35 | 1016.0 |
| 20260503213628 | 22 | 314 | 1.6 | 4.8 | 0.00 | 0.00 | 0.00 | 35 | 1016.1 |
| 20260503213126 | 22 | 264 | 1.6 | 4.8 | 0.00 | 0.00 | 0.00 | 34 | 1016.1 |
| 20260503212620 | 21 | 154 | 0.0 | 4.8 | 0.00 | 0.00 | 0.00 | 32 | 1016.1 |
| 20260503212122 | 22 | 298 | 3.2 | 4.8 | 0.00 | 0.00 | 0.00 | 34 | 1016.2 |
| 20260503211620 | 22 | 238 | 1.6 | 6.4 | 0.00 | 0.00 | 0.00 | 34 | 1016.2 |
| 20260503211115 | 21 | 255 | 3.2 | 6.4 | 0.00 | 0.00 | 0.00 | 32 | 1016.3 |
| 20260503210613 | 22 | 302 | 3.2 | 4.8 | 0.00 | 0.00 | 0.00 | 35 | 1016.3 |
| 20260503210203 | 22 | 0 | 1.6 | 4.8 | 0.00 | 0.00 | 0.00 | 35 | 1016.3 |
| 20260503210145 | 22 | 354 | 1.6 | 4.8 | 0.00 | 0.00 | 0.00 | 31 | 1016.3 |
| 20260503205111 | 22 | 265 | 1.6 | 4.8 | 0.00 | 0.00 | 0.00 | 34 | 1016.3 |
| 20260503204911 | 22 | 179 | 1.6 | 8.0 | 0.00 | 0.00 | 0.00 | 33 | 1016.4 |
| 20260503204110 | 21 | 161 | 3.2 | 8.0 | 0.00 | 0.00 | 0.00 | 34 | 1016.3 |
| 20260503203610 | 21 | 0 | 3.2 | 9.7 | 0.00 | 0.00 | 0.00 | 32 | 1016.4 |
| 20260503203110 | 22 | 347 | 4.8 | 9.7 | 0.00 | 0.00 | 0.00 | 34 | 1016.5 |
| 20260503202610 | 22 | 255 | 1.6 | 8.0 | 0.00 | 0.00 | 0.00 | 36 | 1016.6 |